,,,PA_Meas_PMT16A,,PR_Meas_QMR101_102,,RH_Meas_QMH101,,SR_Meas_QMS101,,TA_Meas_QMH101,,GenWind,,GenWind,
date,time,status,PA,status,PR,status,RH,status,SR,status,TA,status,DirAvg,status,SpdAvg,
2010-01-23, 00:00:04,VALID,1006.52,VALID,0,VALID,82.0791,VALID,0,VALID,24.9885,VALID,349,VALID,1.38242,
2010-01-23, 00:01:04,VALID,1006.48,VALID,0,VALID,81.9342,VALID,0,VALID,25.006,VALID,351,VALID,1.38359,
2010-01-23, 00:02:04,VALID,1006.48,VALID,0,VALID,81.8655,VALID,0,VALID,25.045,VALID,24,VALID,1.23203,
2010-01-23, 00:03:04,VALID,1006.44,VALID,0,VALID,81.8426,VALID,0,VALID,25.045,VALID,3,VALID,1.62969,
2010-01-23, 00:04:04,VALID,1006.43,VALID,0,VALID,81.9113,VALID,0,VALID,25.045,VALID,357,VALID,1.20156,
2010-01-23, 00:05:04,VALID,1006.41,VALID,0,VALID,82.0791,VALID,0,VALID,25.006,VALID,23,VALID,1.17773,
2010-01-23, 00:06:04,VALID,1006.38,VALID,0,VALID,82.0562,VALID,0,VALID,24.9866,VALID,347,VALID,0.860547,
2010-01-23, 00:07:04,VALID,1006.35,VALID,0,VALID,82.1783,VALID,0,VALID,24.9476,VALID,341,VALID,0.716797,
2010-01-23, 00:08:04,VALID,1006.36,VALID,0,VALID,81.8274,VALID,0,VALID,25.0079,VALID,10,VALID,2.53867,
2010-01-23, 00:09:04,VALID,1006.33,VALID,0,VALID,81.507,VALID,0,VALID,25.0469,VALID,336,VALID,0.911719,
2010-01-23, 00:10:04,VALID,1006.31,VALID,0,VALID,81.3239,VALID,0,VALID,25.045,VALID,355,VALID,1.59336,
2010-01-23, 00:11:04,VALID,1006.3,VALID,0,VALID,81.034,VALID,0,VALID,25.1034,VALID,360,VALID,2.15898,
2010-01-23, 00:12:04,VALID,1006.31,VALID,0,VALID,80.9577,VALID,0,VALID,25.1618,VALID,3,VALID,1.36133,
2010-01-23, 00:13:04,VALID,1006.32,VALID,0,VALID,80.9272,VALID,0,VALID,25.1618,VALID,360,VALID,1.29844,
2010-01-23, 00:14:04,VALID,1006.29,VALID,0,VALID,80.9577,VALID,0,VALID,25.1637,VALID,2,VALID,1.06797,
2010-01-23, 00:15:04,VALID,1006.31,VALID,0,VALID,81.1255,VALID,0,VALID,25.1229,VALID,4,VALID,1.64648,
2010-01-23, 00:16:04,VALID,1006.29,VALID,0,VALID,81.2247,VALID,0,VALID,25.0839,VALID,27,VALID,1.6625,
2010-01-23, 00:17:04,VALID,1006.34,VALID,0,VALID,81.4383,VALID,0,VALID,25.0644,VALID,358,VALID,0.828125,
2010-01-23, 00:18:04,VALID,1006.34,VALID,0,VALID,81.5146,VALID,0,VALID,25.0255,VALID,358,VALID,1.47578,
2010-01-23, 00:19:04,VALID,1006.32,VALID,0,VALID,81.6672,VALID,0,VALID,25.0274,VALID,3,VALID,1.55977,
2010-01-23, 00:20:04,VALID,1006.3,VALID,0,VALID,81.7282,VALID,0,VALID,24.9866,VALID,12,VALID,0.850781,
2010-01-23, 00:21:04,VALID,1006.26,VALID,0,VALID,81.5222,VALID,0,VALID,25.0079,VALID,9,VALID,1.90625,
2010-01-23, 00:22:04,VALID,1006.29,VALID,0,VALID,81.5527,VALID,0,VALID,25.006,VALID,8,VALID,1.23008,
2010-01-23, 00:23:04,VALID,1006.28,VALID,0,VALID,81.2399,VALID,0,VALID,25.0663,VALID,352,VALID,1.62695,
2010-01-23, 00:24:04,VALID,1006.27,VALID,0,VALID,81.2094,VALID,0,VALID,25.0858,VALID,355,VALID,1.63359,
2010-01-23, 00:25:04,VALID,1006.27,VALID,0,VALID,81.095,VALID,0,VALID,25.0644,VALID,7,VALID,1.41367,
2010-01-23, 00:26:04,VALID,1006.27,VALID,0,VALID,80.7746,VALID,0,VALID,25.1423,VALID,9,VALID,2.24922,
2010-01-23, 00:27:04,VALID,1006.3,VALID,0,VALID,80.4465,VALID,0,VALID,25.1618,VALID,6,VALID,1.9082,
2010-01-23, 00:28:04,VALID,1006.3,VALID,0,VALID,80.5228,VALID,0,VALID,25.1813,VALID,8,VALID,1.32656,
2010-01-23, 00:29:04,VALID,1006.29,VALID,0,VALID,80.4694,VALID,0,VALID,25.2221,VALID,26,VALID,1.63203,
2010-01-23, 00:30:04,VALID,1006.22,VALID,0,VALID,80.4237,VALID,0,VALID,25.1813,VALID,22,VALID,1.46836,
2010-01-23, 00:31:04,VALID,1006.23,VALID,0,VALID,80.561,VALID,0,VALID,25.2007,VALID,17,VALID,1.04375,
2010-01-23, 00:32:04,VALID,1006.21,VALID,0,VALID,80.3626,VALID,0,VALID,25.2202,VALID,355,VALID,1.17383,
2010-01-23, 00:33:04,VALID,1006.2,VALID,0,VALID,80.2406,VALID,0,VALID,25.2202,VALID,15,VALID,1.55742,
2010-01-23, 00:34:04,VALID,1006.21,VALID,0,VALID,80.5152,VALID,0,VALID,25.2202,VALID,32,VALID,1.11211,
2010-01-23, 00:35:04,VALID,1006.2,VALID,0,VALID,80.2787,VALID,0,VALID,25.2416,VALID,13,VALID,1.75586,
2010-01-23, 00:36:04,VALID,1006.2,VALID,0,VALID,80.3397,VALID,0,VALID,25.2007,VALID,26,VALID,1.17461,
2010-01-23, 00:37:04,VALID,1006.21,VALID,0,VALID,80.294,VALID,0,VALID,25.2007,VALID,18,VALID,2.0543,
2010-01-23, 00:38:04,VALID,1006.2,VALID,0,VALID,80.3931,VALID,0,VALID,25.2202,VALID,12,VALID,1.59805,
2010-01-23, 00:39:04,VALID,1006.24,VALID,0,VALID,80.6907,VALID,0,VALID,25.1423,VALID,18,VALID,1.4457,
2010-01-23, 00:40:04,VALID,1006.25,VALID,0,VALID,80.9043,VALID,0,VALID,25.1229,VALID,20,VALID,1.44687,
2010-01-23, 00:41:04,VALID,1006.27,VALID,0,VALID,81.095,VALID,0,VALID,25.1034,VALID,357,VALID,0.766406,
2010-01-23, 00:42:04,VALID,1006.25,VALID,0,VALID,81.0797,VALID,0,VALID,25.0858,VALID,13,VALID,1.70859,
2010-01-23, 00:43:04,VALID,1006.21,VALID,0,VALID,81.3696,VALID,0,VALID,25.045,VALID,26,VALID,1.09102,
2010-01-23, 00:44:04,VALID,1006.21,VALID,0,VALID,81.6595,VALID,0,VALID,25.006,VALID,26,VALID,1.33281,
2010-01-23, 00:45:04,VALID,1006.15,VALID,0,VALID,81.9037,VALID,0,VALID,24.9282,VALID,12,VALID,1.71602,
2010-01-23, 00:46:04,VALID,1006.14,VALID,0,VALID,81.6214,VALID,0,VALID,24.969,VALID,13,VALID,2.35469,
2010-01-23, 00:47:04,VALID,1006.14,VALID,0,VALID,81.362,VALID,0,VALID,25.0255,VALID,358,VALID,1.38555,
2010-01-23, 00:48:04,VALID,1006.11,VALID,0,VALID,81.2857,VALID,0,VALID,25.0469,VALID,358,VALID,1.21563,
2010-01-23, 00:49:04,VALID,1006.1,VALID,0,VALID,81.2705,VALID,0,VALID,25.006,VALID,6,VALID,1.64883,
2010-01-23, 00:50:04,VALID,1006.09,VALID,0,VALID,81.4154,VALID,0,VALID,25.0255,VALID,10,VALID,1.0832,
2010-01-23, 00:51:04,VALID,1006.06,VALID,0,VALID,81.362,VALID,0,VALID,25.0274,VALID,10,VALID,1.83086,
2010-01-23, 00:52:04,VALID,1006.05,VALID,0,VALID,81.4841,VALID,0,VALID,25.0255,VALID,25,VALID,1.39414,
2010-01-23, 00:53:04,VALID,1006.04,VALID,0,VALID,81.6367,VALID,0,VALID,25.0274,VALID,16,VALID,1.43594,
2010-01-23, 00:54:04,VALID,1006.04,VALID,0,VALID,81.568,VALID,0,VALID,25.0274,VALID,15,VALID,1.83633,
2010-01-23, 00:55:04,VALID,1006.03,VALID,0,VALID,81.3467,VALID,0,VALID,25.0469,VALID,28,VALID,2.19258,
2010-01-23, 00:56:04,VALID,1006.05,VALID,0,VALID,81.4002,VALID,0,VALID,25.045,VALID,16,VALID,1.38047,
2010-01-23, 00:57:04,VALID,1006.03,VALID,0,VALID,81.629,VALID,0,VALID,25.006,VALID,16,VALID,1.26953,
2010-01-23, 00:58:04,VALID,1006.07,VALID,0,VALID,81.4459,VALID,0,VALID,25.0079,VALID,22,VALID,1.94336,
2010-01-23, 00:59:04,VALID,1006.04,VALID,0,VALID,81.7053,VALID,0,VALID,24.9885,VALID,22,VALID,1.64336,
2010-01-23, 01:00:04,VALID,1006,VALID,0,VALID,82.1402,VALID,0,VALID,24.8892,VALID,26,VALID,1.57344,
2010-01-23, 01:01:04,VALID,1006.01,VALID,0,VALID,82.3995,VALID,0,VALID,24.8503,VALID,22,VALID,1.62578,
2010-01-23, 01:02:04,VALID,1005.97,VALID,0,VALID,81.9418,VALID,0,VALID,24.9282,VALID,15,VALID,1.37383,
2010-01-23, 01:03:04,VALID,1005.94,VALID,0,VALID,81.8655,VALID,0,VALID,24.9885,VALID,17,VALID,0.980859,
2010-01-23, 01:04:04,VALID,1005.91,VALID,0,VALID,82.1402,VALID,0,VALID,24.93,VALID,29,VALID,1.16875,
2010-01-23, 01:05:04,VALID,1005.9,VALID,0,VALID,82.4224,VALID,0,VALID,24.8503,VALID,30,VALID,1.19805,
2010-01-23, 01:06:04,VALID,1005.87,VALID,0,VALID,82.6131,VALID,0,VALID,24.8308,VALID,9,VALID,1.81914,
2010-01-23, 01:07:04,VALID,1005.86,VALID,0,VALID,82.4301,VALID,0.100563,VALID,24.8911,VALID,7,VALID,1.22422,
2010-01-23, 01:08:04,VALID,1005.82,VALID,0,VALID,82.4377,VALID,0,VALID,24.8697,VALID,10,VALID,1.23945,
2010-01-23, 01:09:04,VALID,1005.8,VALID,0,VALID,82.4682,VALID,0,VALID,24.8503,VALID,13,VALID,0.8375,
2010-01-23, 01:10:04,VALID,1005.75,VALID,0,VALID,82.3843,VALID,0,VALID,24.8697,VALID,357,VALID,1.85898,
2010-01-23, 01:11:04,VALID,1005.75,VALID,0,VALID,82.3461,VALID,0,VALID,24.8911,VALID,26,VALID,1.90664,
2010-01-23, 01:12:04,VALID,1005.72,VALID,0,VALID,82.3156,VALID,0,VALID,24.9282,VALID,28,VALID,1.41992,
2010-01-23, 01:13:04,VALID,1005.72,VALID,0,VALID,81.7053,VALID,0,VALID,24.9671,VALID,19,VALID,1.90937,
2010-01-23, 01:14:04,VALID,1005.73,VALID,0,VALID,81.4612,VALID,0,VALID,25.0663,VALID,22,VALID,1.07891,
2010-01-23, 01:15:04,VALID,1005.72,VALID,0,VALID,81.2857,VALID,0,VALID,25.0858,VALID,13,VALID,1.68867,
2010-01-23, 01:16:04,VALID,1005.71,VALID,0,VALID,81.2857,VALID,0,VALID,25.1248,VALID,14,VALID,1.61211,
2010-01-23, 01:17:04,VALID,1005.74,VALID,0,VALID,81.1408,VALID,0,VALID,25.1442,VALID,9,VALID,1.16445,
2010-01-23, 01:18:04,VALID,1005.74,VALID,0,VALID,81.156,VALID,0,VALID,25.1637,VALID,16,VALID,0.864062,
2010-01-23, 01:19:04,VALID,1005.75,VALID,0,VALID,81.156,VALID,0,VALID,25.1248,VALID,13,VALID,1.31992,
2010-01-23, 01:20:04,VALID,1005.74,VALID,0,VALID,81.0111,VALID,0,VALID,25.1442,VALID,5,VALID,1.35078,
2010-01-23, 01:21:04,VALID,1005.77,VALID,0,VALID,81.0645,VALID,0,VALID,25.1656,VALID,354,VALID,1.59023,
2010-01-23, 01:22:04,VALID,1005.75,VALID,0,VALID,81.0645,VALID,0,VALID,25.1423,VALID,25,VALID,0.946094,
2010-01-23, 01:23:04,VALID,1005.74,VALID,0,VALID,80.7898,VALID,0,VALID,25.1599,VALID,9,VALID,1.46875,
2010-01-23, 01:24:04,VALID,1005.71,VALID,0,VALID,80.7441,VALID,0,VALID,25.2007,VALID,8,VALID,1.56641,
2010-01-23, 01:25:04,VALID,1005.73,VALID,0,VALID,80.9043,VALID,0,VALID,25.1618,VALID,9,VALID,1.48906,
2010-01-23, 01:26:04,VALID,1005.72,VALID,0,VALID,80.9272,VALID,0,VALID,25.1618,VALID,4,VALID,1.25937,
2010-01-23, 01:27:04,VALID,1005.64,VALID,0,VALID,81.0263,VALID,0,VALID,25.1637,VALID,360,VALID,1.26289,
2010-01-23, 01:28:04,VALID,1005.64,VALID,0,VALID,81.0797,VALID,0,VALID,25.1423,VALID,7,VALID,0.896484,
2010-01-23, 01:29:04,VALID,1005.62,VALID,0,VALID,81.2247,VALID,0,VALID,25.1034,VALID,358,VALID,1.09063,
2010-01-23, 01:30:04,VALID,1005.62,VALID,0,VALID,81.3773,VALID,0,VALID,25.1229,VALID,13,VALID,1.46602,
2010-01-23, 01:31:04,VALID,1005.6,VALID,0,VALID,81.4764,VALID,0,VALID,25.1053,VALID,358,VALID,0.915234,
2010-01-23, 01:32:04,VALID,1005.56,VALID,0,VALID,81.4764,VALID,0,VALID,25.1053,VALID,18,VALID,1.86914,
2010-01-23, 01:33:04,VALID,1005.53,VALID,0,VALID,81.4383,VALID,0,VALID,25.1442,VALID,35,VALID,0.654297,
2010-01-23, 01:34:04,VALID,1005.52,VALID,0,VALID,81.423,VALID,0,VALID,25.1034,VALID,353,VALID,0.975,
2010-01-23, 01:35:04,VALID,1005.5,VALID,0,VALID,81.5222,VALID,0,VALID,25.1034,VALID,17,VALID,1.75352,
2010-01-23, 01:36:04,VALID,1005.46,VALID,0,VALID,81.8121,VALID,0,VALID,25.0839,VALID,15,VALID,0.983203,
2010-01-23, 01:37:04,VALID,1005.41,VALID,0,VALID,81.9189,VALID,0,VALID,25.045,VALID,8,VALID,0.709375,
2010-01-23, 01:38:04,VALID,1005.35,VALID,0,VALID,82.247,VALID,0,VALID,25.0274,VALID,32,VALID,1.27852,
2010-01-23, 01:39:04,VALID,1005.36,VALID,0,VALID,82.2317,VALID,0,VALID,25.0274,VALID,13,VALID,2.19336,
2010-01-23, 01:40:04,VALID,1005.32,VALID,0,VALID,82.1859,VALID,0,VALID,25.0274,VALID,23,VALID,1.51758,
2010-01-23, 01:41:04,VALID,1005.36,VALID,0,VALID,82.0868,VALID,0,VALID,25.045,VALID,355,VALID,1.47617,
2010-01-23, 01:42:04,VALID,1005.37,VALID,0,VALID,82.247,VALID,0,VALID,25.0663,VALID,17,VALID,1.21523,
2010-01-23, 01:43:04,VALID,1005.36,VALID,0,VALID,82.4224,VALID,0,VALID,25.0274,VALID,5,VALID,2.09297,
2010-01-23, 01:44:04,VALID,1005.38,VALID,0,VALID,82.2241,VALID,0,VALID,25.0663,VALID,3,VALID,1.69922,
2010-01-23, 01:45:04,VALID,1005.34,VALID,0,VALID,82.1707,VALID,0,VALID,25.0644,VALID,13,VALID,1.84258,
2010-01-23, 01:46:04,VALID,1005.32,VALID,0,VALID,82.2088,VALID,0,VALID,25.045,VALID,352,VALID,1.36797,
2010-01-23, 01:47:04,VALID,1005.32,VALID,0,VALID,82.369,VALID,0,VALID,25.045,VALID,9,VALID,0.951563,
2010-01-23, 01:48:04,VALID,1005.32,VALID,0,VALID,82.4377,VALID,0,VALID,25.0469,VALID,32,VALID,0.908203,
2010-01-23, 01:49:04,VALID,1005.31,VALID,0,VALID,82.514,VALID,0,VALID,25.0255,VALID,357,VALID,0.960547,
2010-01-23, 01:50:04,VALID,1005.35,VALID,0,VALID,82.7047,VALID,0,VALID,25.006,VALID,15,VALID,1.0543,
2010-01-23, 01:51:04,VALID,1005.32,VALID,0,VALID,82.7123,VALID,0,VALID,25.006,VALID,20,VALID,1.44687,
2010-01-23, 01:52:04,VALID,1005.33,VALID,0,VALID,82.5903,VALID,0,VALID,25.045,VALID,333,VALID,0.468359,
2010-01-23, 01:53:04,VALID,1005.36,VALID,0,VALID,82.5979,VALID,0,VALID,25.0255,VALID,348,VALID,0.913281,
2010-01-23, 01:54:04,VALID,1005.35,VALID,0,VALID,82.7734,VALID,0,VALID,25.006,VALID,6,VALID,0.756641,
2010-01-23, 01:55:04,VALID,1005.32,VALID,0,VALID,82.903,VALID,0,VALID,24.9885,VALID,353,VALID,1.04141,
2010-01-23, 01:56:04,VALID,1005.34,VALID,0,VALID,82.9641,VALID,0,VALID,24.9476,VALID,358,VALID,1.09023,
2010-01-23, 01:57:04,VALID,1005.33,VALID,0,VALID,83.109,VALID,0,VALID,24.9476,VALID,354,VALID,1.07109,
2010-01-23, 01:58:04,VALID,1005.36,VALID,0,VALID,83.109,VALID,0,VALID,24.969,VALID,14,VALID,0.403906,
2010-01-23, 01:59:04,VALID,1005.38,VALID,0,VALID,83.2311,VALID,0,VALID,24.9087,VALID,14,VALID,0.284766,
2010-01-23, 02:00:04,VALID,1005.37,VALID,0,VALID,83.4447,VALID,0,VALID,24.8697,VALID,312,VALID,0.464453,
2010-01-23, 02:01:04,VALID,1005.42,VALID,0,VALID,83.7041,VALID,0,VALID,24.8522,VALID,351,VALID,0.592578,
2010-01-23, 02:02:04,VALID,1005.42,VALID,0,VALID,83.8567,VALID,0,VALID,24.7919,VALID,349,VALID,0.334766,
2010-01-23, 02:03:04,VALID,1005.43,VALID,0,VALID,83.9482,VALID,0,VALID,24.7743,VALID,349,VALID,0.532422,
2010-01-23, 02:04:04,VALID,1005.46,VALID,0,VALID,84.0397,VALID,0,VALID,24.7743,VALID,349,VALID,0.342187,
2010-01-23, 02:05:04,VALID,1005.47,VALID,0,VALID,84.0779,VALID,0,VALID,24.7743,VALID,327,VALID,0.504297,
2010-01-23, 02:06:04,VALID,1005.45,VALID,0,VALID,84.0626,VALID,0,VALID,24.7743,VALID,340,VALID,0.432031,
2010-01-23, 02:07:04,VALID,1005.47,VALID,0,VALID,84.1618,VALID,0,VALID,24.7743,VALID,341,VALID,0.0453125,
2010-01-23, 02:08:04,VALID,1005.46,VALID,0,VALID,84.2381,VALID,0,VALID,24.7529,VALID,301,VALID,0.670703,
2010-01-23, 02:09:04,VALID,1005.47,VALID,0,VALID,84.1389,VALID,0,VALID,24.7529,VALID,289,VALID,0.839453,
2010-01-23, 02:10:04,VALID,1005.46,VALID,0,VALID,84.2076,VALID,0,VALID,24.7529,VALID,281,VALID,0.328906,
2010-01-23, 02:11:04,VALID,1005.46,VALID,0,VALID,84.3296,VALID,0,VALID,24.7548,VALID,281,VALID,0.347656,
2010-01-23, 02:12:04,VALID,1005.47,VALID,0,VALID,84.4288,VALID,0,VALID,24.7159,VALID,284,VALID,0.278125,
2010-01-23, 02:13:04,VALID,1005.5,VALID,0,VALID,84.4212,VALID,0,VALID,24.6964,VALID,284,VALID,0.15,
2010-01-23, 02:14:04,VALID,1005.52,VALID,0,VALID,84.589,VALID,0,VALID,24.6574,VALID,300,VALID,0.789453,
2010-01-23, 02:15:04,VALID,1005.52,VALID,0,VALID,84.6272,VALID,0,VALID,24.638,VALID,297,VALID,0.580078,
2010-01-23, 02:16:04,VALID,1005.54,VALID,0,VALID,84.7416,VALID,0,VALID,24.5777,VALID,298,VALID,0.311328,
2010-01-23, 02:17:04,VALID,1005.59,VALID,0,VALID,84.8255,VALID,0,VALID,24.5601,VALID,300,VALID,0.4375,
2010-01-23, 02:18:04,VALID,1005.61,VALID,0,VALID,85.0773,VALID,0,VALID,24.4822,VALID,345,VALID,0.205469,
2010-01-23, 02:19:04,VALID,1005.64,VALID,0,VALID,85.4053,VALID,0,VALID,24.4433,VALID,345,VALID,0.173438,
2010-01-23, 02:20:04,VALID,1005.6,VALID,0,VALID,85.5579,VALID,0,VALID,24.3654,VALID,345,VALID,0.0132813,
2010-01-23, 02:21:04,VALID,1005.63,VALID,0,VALID,85.741,VALID,0,VALID,24.307,VALID,345,VALID,0.292188,
2010-01-23, 02:22:04,VALID,1005.6,VALID,0,VALID,86.1301,VALID,0,VALID,24.2078,VALID,345,VALID,0.362891,
2010-01-23, 02:23:04,VALID,1005.57,VALID,0,VALID,86.4123,VALID,0,VALID,24.1494,VALID,345,VALID,0.14375,
2010-01-23, 02:24:04,VALID,1005.59,VALID,0,VALID,86.6107,VALID,0,VALID,24.0521,VALID,345,VALID,0,
2010-01-23, 02:25:04,VALID,1005.59,VALID,0,VALID,86.9082,VALID,0,VALID,23.9548,VALID,345,VALID,0.249609,
2010-01-23, 02:26:04,VALID,1005.59,VALID,0,VALID,87.2362,VALID,0,VALID,23.8769,VALID,345,VALID,0.179297,
2010-01-23, 02:27:04,VALID,1005.56,VALID,0,VALID,87.6329,VALID,0,VALID,23.838,VALID,345,VALID,0.252344,
2010-01-23, 02:28:04,VALID,1005.55,VALID,0,VALID,88.1059,VALID,0,VALID,23.7796,VALID,332,VALID,0.273047,
2010-01-23, 02:29:04,VALID,1005.59,VALID,0,VALID,88.3653,VALID,0,VALID,23.7601,VALID,298,VALID,0.265625,
2010-01-23, 02:30:04,VALID,1005.56,VALID,0,VALID,88.3882,VALID,0,VALID,23.7212,VALID,331,VALID,0.474609,
2010-01-23, 02:31:04,VALID,1005.54,VALID,0,VALID,88.4569,VALID,0,VALID,23.6628,VALID,331,VALID,0,
2010-01-23, 02:32:04,VALID,1005.55,VALID,0,VALID,88.6094,VALID,0,VALID,23.6221,VALID,331,VALID,0.232422,
2010-01-23, 02:33:04,VALID,1005.54,VALID,0,VALID,88.8917,VALID,0,VALID,23.6044,VALID,331,VALID,0.262891,
2010-01-23, 02:34:04,VALID,1005.56,VALID,0,VALID,89.1206,VALID,0,VALID,23.5655,VALID,331,VALID,0.0625,
2010-01-23, 02:35:04,VALID,1005.56,VALID,0,VALID,89.4105,VALID,0,VALID,23.546,VALID,331,VALID,0.142969,
2010-01-23, 02:36:04,VALID,1005.55,VALID,0,VALID,89.5249,VALID,0,VALID,23.5266,VALID,331,VALID,0.0570313,
2010-01-23, 02:37:04,VALID,1005.59,VALID,0,VALID,89.6546,VALID,0,VALID,23.5071,VALID,331,VALID,0.203516,
2010-01-23, 02:38:04,VALID,1005.58,VALID,0,VALID,89.5936,VALID,0,VALID,23.4682,VALID,331,VALID,0.0726563,
2010-01-23, 02:39:04,VALID,1005.56,VALID,0,VALID,89.6165,VALID,0,VALID,23.3904,VALID,331,VALID,0.227734,
2010-01-23, 02:40:04,VALID,1005.56,VALID,0,VALID,89.7233,VALID,0,VALID,23.3727,VALID,331,VALID,0.191016,
2010-01-23, 02:41:04,VALID,1005.54,VALID,0,VALID,89.8758,VALID,0,VALID,23.2931,VALID,331,VALID,0.534375,
2010-01-23, 02:42:04,VALID,1005.51,VALID,0,VALID,90.0589,VALID,0,VALID,23.2736,VALID,331,VALID,0.3625,
2010-01-23, 02:43:04,VALID,1005.52,VALID,0,VALID,90.2268,VALID,0,VALID,23.2347,VALID,331,VALID,0.275,
2010-01-23, 02:44:04,VALID,1005.47,VALID,0,VALID,90.3946,VALID,0,VALID,23.1957,VALID,331,VALID,0.348828,
2010-01-23, 02:45:04,VALID,1005.47,VALID,0,VALID,90.5396,VALID,0,VALID,23.1763,VALID,338,VALID,0.666406,
2010-01-23, 02:46:04,VALID,1005.45,VALID,0,VALID,90.5548,VALID,0,VALID,23.1586,VALID,358,VALID,0.421484,
2010-01-23, 02:47:04,VALID,1005.45,VALID,0,VALID,90.6387,VALID,0,VALID,23.1002,VALID,358,VALID,0.318359,
2010-01-23, 02:48:04,VALID,1005.45,VALID,0,VALID,90.6998,VALID,0,VALID,23.079,VALID,358,VALID,0.456641,
2010-01-23, 02:49:04,VALID,1005.43,VALID,0,VALID,90.776,VALID,0,VALID,23.0012,VALID,358,VALID,0.578516,
2010-01-23, 02:50:04,VALID,1005.41,VALID,0,VALID,90.8981,VALID,0,VALID,22.9605,VALID,358,VALID,0.384375,
2010-01-23, 02:51:04,VALID,1005.41,VALID,0,VALID,91.1346,VALID,0.100563,VALID,23.0012,VALID,358,VALID,0.497266,
2010-01-23, 02:52:04,VALID,1005.37,VALID,0,VALID,91.1956,VALID,0,VALID,22.9622,VALID,358,VALID,0.673828,
2010-01-23, 02:53:04,VALID,1005.33,VALID,0,VALID,91.333,VALID,0,VALID,22.9428,VALID,358,VALID,0.6375,
2010-01-23, 02:54:04,VALID,1005.35,VALID,0,VALID,91.4703,VALID,0,VALID,22.9233,VALID,358,VALID,0.671484,
2010-01-23, 02:55:04,VALID,1005.34,VALID,0,VALID,91.5466,VALID,0.100563,VALID,22.9233,VALID,358,VALID,0.748047,
2010-01-23, 02:56:04,VALID,1005.31,VALID,0,VALID,91.5771,VALID,0.100563,VALID,22.8649,VALID,358,VALID,0.636719,
2010-01-23, 02:57:04,VALID,1005.27,VALID,0,VALID,91.6305,VALID,0,VALID,22.826,VALID,358,VALID,0.655859,
2010-01-23, 02:58:04,VALID,1005.27,VALID,0,VALID,91.661,VALID,0,VALID,22.7871,VALID,358,VALID,0.649609,
2010-01-23, 02:59:04,VALID,1005.24,VALID,0,VALID,91.7449,VALID,0,VALID,22.7677,VALID,358,VALID,0.452344,
2010-01-23, 03:00:04,VALID,1005.2,VALID,0,VALID,91.7754,VALID,0,VALID,22.727,VALID,358,VALID,0.310156,
2010-01-23, 03:01:04,VALID,1005.19,VALID,0,VALID,91.8746,VALID,0,VALID,22.7076,VALID,358,VALID,0.209375,
2010-01-23, 03:02:04,VALID,1005.19,VALID,0,VALID,91.9204,VALID,0.100563,VALID,22.7287,VALID,358,VALID,0,
2010-01-23, 03:03:04,VALID,1005.18,VALID,0,VALID,91.9967,VALID,0.100563,VALID,22.7076,VALID,358,VALID,0,
2010-01-23, 03:04:04,VALID,1005.18,VALID,0,VALID,92.0577,VALID,0.100563,VALID,22.7093,VALID,358,VALID,0,
2010-01-23, 03:05:04,VALID,1005.17,VALID,0,VALID,92.1187,VALID,0.100563,VALID,22.7076,VALID,358,VALID,0,
2010-01-23, 03:06:04,VALID,1005.16,VALID,0,VALID,92.1874,VALID,0,VALID,22.727,VALID,358,VALID,0,
2010-01-23, 03:07:04,VALID,1005.17,VALID,0,VALID,92.2713,VALID,0,VALID,22.7076,VALID,358,VALID,0,
2010-01-23, 03:08:04,VALID,1005.16,VALID,0,VALID,92.3247,VALID,0,VALID,22.7677,VALID,358,VALID,0,
2010-01-23, 03:09:04,VALID,1005.18,VALID,0,VALID,92.401,VALID,0,VALID,22.7659,VALID,358,VALID,0.0101562,
2010-01-23, 03:10:04,VALID,1005.17,VALID,0,VALID,92.4773,VALID,0.100563,VALID,22.8066,VALID,358,VALID,0.130859,
2010-01-23, 03:11:04,VALID,1005.17,VALID,0,VALID,92.5231,VALID,0.100563,VALID,22.7659,VALID,358,VALID,0,
2010-01-23, 03:12:04,VALID,1005.13,VALID,0,VALID,92.5383,VALID,0,VALID,22.7482,VALID,358,VALID,0,
2010-01-23, 03:13:04,VALID,1005.09,VALID,0,VALID,92.5536,VALID,0.100563,VALID,22.727,VALID,358,VALID,0.508594,
2010-01-23, 03:14:04,VALID,1005.09,VALID,0,VALID,92.5612,VALID,0.100563,VALID,22.7076,VALID,1,VALID,0.338281,
2010-01-23, 03:15:04,VALID,1005.04,VALID,0,VALID,92.5612,VALID,0.100563,VALID,22.7076,VALID,7,VALID,0.3625,
2010-01-23, 03:16:04,VALID,1005.04,VALID,0,VALID,92.5765,VALID,0,VALID,22.7076,VALID,7,VALID,0,
2010-01-23, 03:17:04,VALID,1004.99,VALID,0,VALID,92.6146,VALID,0,VALID,22.6881,VALID,7,VALID,0.231641,
2010-01-23, 03:18:04,VALID,1005.03,VALID,0,VALID,92.5917,VALID,0,VALID,22.7076,VALID,7,VALID,0,
2010-01-23, 03:19:04,VALID,1005.03,VALID,0,VALID,92.6299,VALID,0.100563,VALID,22.7093,VALID,7,VALID,0,
2010-01-23, 03:20:04,VALID,1005.02,VALID,0,VALID,92.6451,VALID,0,VALID,22.6881,VALID,7,VALID,0,
2010-01-23, 03:21:04,VALID,1005.01,VALID,0,VALID,92.6528,VALID,0,VALID,22.6898,VALID,7,VALID,0,
2010-01-23, 03:22:04,VALID,1005.06,VALID,0,VALID,92.6985,VALID,0.100563,VALID,22.7076,VALID,7,VALID,0.137109,
2010-01-23, 03:23:04,VALID,1005.08,VALID,0,VALID,92.729,VALID,0,VALID,22.7287,VALID,7,VALID,0,
2010-01-23, 03:24:04,VALID,1005.1,VALID,0,VALID,92.7519,VALID,0,VALID,22.7093,VALID,7,VALID,0,
2010-01-23, 03:25:04,VALID,1005.1,VALID,0,VALID,92.7596,VALID,0.100563,VALID,22.7659,VALID,60,VALID,0.374609,
2010-01-23, 03:26:04,VALID,1005.13,VALID,0,VALID,92.8206,VALID,0.100563,VALID,22.8066,VALID,60,VALID,0.188281,
2010-01-23, 03:27:04,VALID,1005.08,VALID,0,VALID,92.8511,VALID,0.100563,VALID,22.8243,VALID,45,VALID,0.317969,
2010-01-23, 03:28:04,VALID,1005.11,VALID,0,VALID,92.8435,VALID,0,VALID,22.8827,VALID,18,VALID,0.336719,
2010-01-23, 03:29:04,VALID,1005.08,VALID,0,VALID,92.8587,VALID,0.100563,VALID,22.9216,VALID,17,VALID,0.64375,
2010-01-23, 03:30:04,VALID,1005.06,VALID,0,VALID,92.8206,VALID,0,VALID,22.9428,VALID,321,VALID,0.584766,
2010-01-23, 03:31:04,VALID,1005.07,VALID,0,VALID,92.7596,VALID,0,VALID,23.0012,VALID,58,VALID,0.463281,
2010-01-23, 03:32:04,VALID,1005.09,VALID,0,VALID,92.729,VALID,0.100563,VALID,23.0595,VALID,58,VALID,0.187891,
2010-01-23, 03:33:04,VALID,1005.12,VALID,0,VALID,92.6375,VALID,0,VALID,23.0189,VALID,58,VALID,0.268359,
2010-01-23, 03:34:04,VALID,1005.17,VALID,0,VALID,92.5688,VALID,0,VALID,23.0383,VALID,58,VALID,0,
2010-01-23, 03:35:04,VALID,1005.23,VALID,0,VALID,92.4773,VALID,0.100563,VALID,23.0578,VALID,58,VALID,0,
2010-01-23, 03:36:04,VALID,1005.28,VALID,0,VALID,92.4086,VALID,0,VALID,23.1179,VALID,58,VALID,0,
2010-01-23, 03:37:04,VALID,1005.27,VALID,0,VALID,92.3629,VALID,0,VALID,23.1356,VALID,58,VALID,0.301172,
2010-01-23, 03:38:04,VALID,1005.29,VALID,0,VALID,92.3171,VALID,0,VALID,23.1957,VALID,58,VALID,0,
2010-01-23, 03:39:04,VALID,1005.26,VALID,0,VALID,92.2027,VALID,0.100563,VALID,23.194,VALID,59,VALID,0.218359,
2010-01-23, 03:40:04,VALID,1005.25,VALID,0,VALID,92.0653,VALID,0,VALID,23.2347,VALID,59,VALID,0,
2010-01-23, 03:41:04,VALID,1005.26,VALID,0,VALID,91.9204,VALID,0,VALID,23.2524,VALID,59,VALID,0,
2010-01-23, 03:42:04,VALID,1005.25,VALID,0,VALID,91.7983,VALID,0,VALID,23.2718,VALID,59,VALID,0.00078125,
2010-01-23, 03:43:04,VALID,1005.26,VALID,0,VALID,91.6534,VALID,0,VALID,23.2718,VALID,59,VALID,0.207422,
2010-01-23, 03:44:04,VALID,1005.26,VALID,0,VALID,91.4779,VALID,0,VALID,23.2524,VALID,59,VALID,0,
2010-01-23, 03:45:04,VALID,1005.28,VALID,0,VALID,91.3711,VALID,0,VALID,23.2931,VALID,59,VALID,0.179688,
2010-01-23, 03:46:04,VALID,1005.28,VALID,0,VALID,91.2796,VALID,0,VALID,23.2524,VALID,59,VALID,0,
2010-01-23, 03:47:04,VALID,1005.29,VALID,0,VALID,91.2185,VALID,0,VALID,23.2329,VALID,59,VALID,0,